Overview Statistics Trail Chart Weather Telemetry Raw packets
 

This is the latest recevied weather packets stored in our database for station/object KF0WJA. If no packets are shown the sender has not sent any weather packets the latest 10 day(s).

<< 85 86 87 88 89 90 91 >>
Time Temp. Humidity Pressure Rain* Wind** Luminosity Snow
1788039506 37.78° C 31% 1014.9 hPa 0 mm - 474 W/m² -
1788039204 37.78° C 32% 1015 hPa 0 mm - 490 W/m² -
1788038896 37.78° C 32% 1015 hPa 0 mm - 518 W/m² -
1788038592 37.78° C 31% 1015.2 hPa 0 mm - 520 W/m² -
1788038291 37.78° C 32% 1015 hPa 0 mm - 513 W/m² -
1788037986 37.78° C 33% 1015.4 hPa 0 mm - 548 W/m² -
1788037681 37.78° C 33% 1015.5 hPa 0 mm - 540 W/m² -
1788037375 37.78° C 34% 1015.4 hPa 0 mm - 559 W/m² -
1788037075 37.78° C 34% 1015.4 hPa 0 mm - 560 W/m² -
1788036770 37.78° C 34% 1015.5 hPa 0 mm - 600 W/m² -
1788036467 37.78° C 35% 1015.7 hPa 0 mm - 601 W/m² -
1788036163 37.78° C 35% 1015.7 hPa 0 mm - 631 W/m² -
1788035862 37.78° C 35% 1015.6 hPa 0 mm - 646 W/m² -
1788035557 37.22° C 36% 1015.8 hPa 0 mm - 650 W/m² -
1788035252 37.78° C 36% 1015.9 hPa 0 mm - 656 W/m² -
1788034948 37.22° C 37% 1015.8 hPa 0 mm - 641 W/m² -
1788034644 36.67° C 37% 1016.1 hPa 0 mm - 652 W/m² -
1788034341 37.22° C 36% 1016.1 hPa 0 mm - 643 W/m² -
1788034040 36.67° C 37% 1016.2 hPa 0 mm - 632 W/m² -
1788033740 36.67° C 37% 1016.3 hPa 0 mm - 669 W/m² -
1788033439 36.67° C 37% 1016.6 hPa 0 mm - 676 W/m² -
1788033135 36.67° C 38% 1016.5 hPa 0 mm - 653 W/m² -
1788032829 36.11° C 38% 1016.5 hPa 0 mm - 678 W/m² -
1788032529 36.11° C 38% 1016.8 hPa 0 mm - 680 W/m² -
1788032224 36.67° C 38% 1016.7 hPa 0 mm - 657 W/m² -

* Rain latest hour (hover to see other rain measurements)
** Current wind speed in m/s (hover to see current wind gust speed)